Pecos, TX

1:06 PM CDT on March 29, 2017 (GMT -0500)
Pecos Municipal

Weather History for KPEQ - May, 2013

Change the Weather History Date:

Friday, May 17, 2013

  Actual Average Record
Temperature  
Mean Temperature 78 °F -  
Max Temperature 103 °F 93 °F 105 °F (1971)
Min Temperature 55 °F 57 °F 43 °F (1973)
Cooling Degree Days 14    
Growing Degree Days 28 (Base 50)    
Moisture  
Dew Point 32 °F    
Average Humidity 24    
Maximum Humidity 42    
Minimum Humidity 10    
Precipitation  
Precipitation 0.00 in - - ()
Sea Level Pressure  
Sea Level Pressure 29.83 in    
Wind  
Wind Speed 7 mph (SW)    
Max Wind Speed 20 mph    
Max Gust Speed 24 mph    
Visibility 10 miles    
Events      
Averages and records for this station are not official NWS values.
T = Trace of Precipitation, MM = Missing Value Source: NWS Daily Summary

Daily Weather History Graph

Daily Weather History Graph

Search for Another Location

Airport or City:

Trip Planner

Search our weather history database for the weather conditions in past years. The results will help you decide how hot, cold, wet, or windy it might be!

Date:

Astronomy

May. 17, 2013 Rise Set
Actual Time 6:56 AM CDT 8:44 PM CDT
Civil Twilight 6:29 AM CDT 9:11 PM CDT
Nautical Twilight 5:57 AM CDT 9:43 PM CDT
Astronomical Twilight 5:23 AM CDT 10:18 PM CDT
Moon 1:20 PM CDT (5/17) 1:48 AM CDT (5/17)
Length of Visible Light 14h 41m
Length of Day
13h 48m
Waxing Crescent, 45% of the Moon is Illuminated
May 17
Waxing Crescent
May 17
First Quarter
May 24
Full
May 31
Last Quarter
Jun 8
New

Hourly Weather History & Observations

Time (CDT) Temp. Dew Point Humidity Pressure Visibility Wind Dir Wind Speed Gust Speed Precip Events Conditions
12:15 AM 72.5 °F 28.0 °F 19% 29.82 in 10.0 mi WSW 9.2 mph - N/A   Clear
12:35 AM 70.7 °F 28.4 °F 21% 29.81 in 10.0 mi WSW 9.2 mph - N/A   Clear
12:55 AM 68.4 °F 30.9 °F 25% 29.82 in 10.0 mi SSW 8.1 mph - N/A   Clear
1:15 AM 66.2 °F 32.0 °F 28% 29.82 in 10.0 mi SSW 6.9 mph - N/A   Clear
1:35 AM 64.2 °F 32.4 °F 30% 29.82 in 10.0 mi SSW 3.5 mph - N/A   Clear
1:55 AM 62.6 °F 32.5 °F 32% 29.82 in 10.0 mi WSW 8.1 mph - N/A   Clear
2:15 AM 64.6 °F 31.1 °F 29% 29.81 in 10.0 mi WSW 8.1 mph - N/A   Clear
2:35 AM 64.0 °F 29.5 °F 27% 29.81 in 10.0 mi WSW 8.1 mph - N/A   Clear
2:55 AM 64.4 °F 28.6 °F 26% 29.80 in 10.0 mi WSW 8.1 mph - N/A   Clear
3:15 AM 64.4 °F 28.4 °F 26% 29.80 in 10.0 mi WSW 8.1 mph - N/A   Clear
3:35 AM 62.1 °F 30.0 °F 30% 29.81 in 10.0 mi SW 4.6 mph - N/A   Clear
3:55 AM 60.4 °F 31.1 °F 33% 29.80 in 10.0 mi South 4.6 mph - N/A   Clear
4:15 AM 59.0 °F 32.0 °F 36% 29.81 in 10.0 mi SW 3.5 mph - N/A   Clear
4:35 AM 59.0 °F 32.5 °F 37% 29.81 in 10.0 mi SW 5.8 mph - N/A   Clear
4:55 AM 58.5 °F 32.7 °F 38% 29.82 in 10.0 mi SW 3.5 mph - N/A   Clear
5:15 AM 58.3 °F 32.9 °F 38% 29.82 in 10.0 mi SSE 3.5 mph - N/A   Clear
5:35 AM 55.9 °F 33.3 °F 42% 29.83 in 10.0 mi Calm Calm - N/A   Clear
5:55 AM 56.5 °F 32.9 °F 41% 29.83 in 10.0 mi Calm Calm - N/A   Clear
6:15 AM 57.4 °F 32.4 °F 39% 29.83 in 10.0 mi WNW 4.6 mph - N/A   Clear
6:35 AM 56.7 °F 32.0 °F 39% 29.84 in 10.0 mi WNW 5.8 mph - N/A   Clear
7:15 AM 55.9 °F 33.1 °F 42% 29.86 in 10.0 mi Calm Calm - N/A   Clear
7:35 AM 57.9 °F 34.0 °F 41% 29.86 in 5.0 mi Calm Calm - N/A   Haze
7:55 AM 61.2 °F 33.6 °F 36% 29.88 in 10.0 mi Calm Calm - N/A   Clear
8:35 AM 67.6 °F 31.8 °F 26% 29.90 in 10.0 mi Calm Calm - N/A   Clear
9:15 AM 73.4 °F 32.2 °F 22% 29.91 in 10.0 mi Calm Calm - N/A   Clear
9:55 AM 79.0 °F 30.2 °F 17% 29.90 in 10.0 mi NNW 3.5 mph - N/A   Clear
10:15 AM 81.0 °F 31.8 °F 17% 29.90 in 10.0 mi Calm Calm - N/A   Clear
10:55 AM 86.9 °F 33.3 °F 15% 29.89 in 10.0 mi NW 5.8 mph - N/A   Clear
11:15 AM 89.6 °F 33.8 °F 14% 29.89 in 10.0 mi WNW 5.8 mph - N/A   Clear
11:35 AM 91.8 °F 33.3 °F 13% 29.89 in 10.0 mi NNW 6.9 mph - N/A   Clear
11:55 AM 93.2 °F 32.7 °F 12% 29.88 in 10.0 mi NNW 8.1 mph - N/A   Clear
12:35 PM 96.6 °F 31.8 °F 10% 29.88 in 10.0 mi NE 9.2 mph - N/A   Clear
1:35 PM 99.0 °F 32.4 °F 10% 29.85 in 10.0 mi ESE 5.8 mph - N/A   Clear
2:15 PM 100.0 °F 34.2 °F 10% 29.84 in 10.0 mi SE 3.5 mph - N/A   Clear
2:35 PM 100.6 °F 35.1 °F 10% 29.84 in 10.0 mi SSE 6.9 mph - N/A   Clear
3:15 PM 101.3 °F 36.1 °F 10% 29.82 in 10.0 mi East 10.4 mph 18.4 mph N/A   Clear
3:55 PM 100.8 °F 36.1 °F 11% 29.79 in 10.0 mi East 12.7 mph 18.4 mph N/A   Clear
5:15 PM 99.9 °F 36.1 °F 11% 29.76 in 10.0 mi East 11.5 mph 16.1 mph N/A   Clear
5:55 PM 102.9 °F 35.2 °F 10% 29.75 in 10.0 mi SSW 19.6 mph 24.2 mph N/A   Clear
6:35 PM 99.9 °F 33.8 °F 10% 29.75 in 10.0 mi SSW 17.3 mph - N/A   Clear
7:55 PM 96.8 °F 33.4 °F 11% 29.76 in 10.0 mi South 11.5 mph - N/A   Clear
8:55 PM 88.0 °F 32.0 °F 14% 29.77 in 10.0 mi South 6.9 mph - N/A   Clear
10:35 PM 82.0 °F 32.0 °F 16% 29.80 in 10.0 mi SE 5.8 mph - N/A   Clear
10:55 PM 78.3 °F 31.8 °F 18% 29.81 in 10.0 mi SE 9.2 mph - N/A   Clear